#timestamp,LO_Frequency,Hit,StdDev 
1581805855.7,286046999.8,P
1581805875.5,286047000.1,P
1581805895.4,286047000.1,N
1581805915.2,286047000.1,N
1581805935.1,286047002.6,Y
1581805936.0,286047002.6,P
1581805955.8,286047002.1,N
1581805975.6,286047001.3,N
1581805995.5,286047004.4,Y
1581806015.3,286047001.6,P
1581806035.1,286047004.1,P
1581806055.9,286047003.0,N
1581806075.7,286047003.4,Y
1581806095.6,286047001.7,P
1581806115.4,286047001.7,P
1581806135.2,286047001.3,P
1581806155.1,286047001.8,Y
1581806156.0,286047001.8,P
1581806175.8,286047002.8,P
1581806195.7,286047002.7,P
1581806215.5,286047002.3,Y
1581806235.3,286047000.9,P
1581806255.2,286047000.5,N
1581806275.0,286047001.2,N
1581806275.9,286047001.2,N
1581806295.8,286047000.7,N
1581806315.6,286047000.9,N
1581806335.4,286047002.8,Y
1581806355.3,286047000.8,P
1581806375.1,286047001.2,P
1581806395.8,286046998.4,P
1581806415.7,286046998.5,N
1581806435.5,286046998.4,N
1581806455.4,286046998.6,N
1581806475.2,286046998.8,N
1581806495.0,286046998.9,N
1581806495.9,286046998.9,N
1581806515.8,286046998.4,N
1581806535.6,286046998.8,N
1581806555.4,286046998.6,N
1581806575.3,286047001.2,N
1581806595.1,286046998.5,N
1581806615.9,286046998.5,N
1581806635.7,286046998.4,N
1581806655.5,286046996.7,Y
1581806675.4,286046998.6,P
1581806695.2,286046998.7,P
1581806715.1,286047001.2,P
1581806716.0,286047001.2,N
1581806735.8,286046998.7,N
1581806755.6,286047000.5,N
1581806775.5,286047000.4,N
1581806795.3,286046999.7,N
1581806815.1,286047000.5,N
1581806835.9,286047000.3,N
1581806855.7,286047000.0,N
1581806875.6,286047000.5,N
1581806895.4,286047000.3,N
1581806915.2,286047000.1,N
1581806935.1,286047001.4,N
1581806936.0,286047001.4,N
1581806955.8,286047001.3,N
1581806975.7,286047004.3,Y
1581806995.5,286047001.9,P
1581807015.3,286047002.5,N
1581807035.2,286047002.8,N
1581807055.0,286047000.4,N
1581807055.9,286047000.4,N
1581807075.8,286047002.0,N
1581807095.6,286047001.5,N
1581807115.4,286047001.8,N
1581807135.3,286047001.7,N
1581807155.1,286047002.6,Y
1581807175.9,286047000.0,P
1581807195.7,286047002.8,P
1581807215.5,286047002.5,N
1581807235.4,286047002.1,N
1581807255.2,286047002.7,N
1581807275.0,286047001.7,N
1581807276.0,286047001.7,N
1581807295.8,286047004.3,Y
1581807315.6,286046999.9,P
1581807335.5,286047000.7,N
1581807355.3,286047000.3,N
1581807375.1,286047002.8,Y
1581807395.9,286046999.8,P
1581807415.7,286047000.7,N
1581807435.6,286047000.1,N
1581807455.4,286047000.0,N
1581807475.2,286047001.9,Y
1581807495.1,286047002.7,P
1581807496.0,286047002.7,N
1581807515.8,286047002.1,N
1581807535.7,286047002.2,N
1581807555.5,286047002.6,N
1581807575.3,286047002.2,N
1581807595.2,286047001.5,N
